Weather Roundup
Issued by NWS Springfield, MO

Home | Current Version | Previous Version | Text Only | Print | Product List | Glossary On
Versions: 1 2 3 4 5 6 7 8 9 10 11 12 13 14 15 16 17 18 19 20 21 22 23 24 25 26 27 28 29 30 31 32 33 34 35 36 37 38 39 40 41 42 43 44 45 46 47 48 49 50
000
NZUS99 KSGF 201807
HRRSGF

HOURLY WEATHER
NATIONAL WEATHER SERVICE SPRINGFIELD MO
1200 PM CST SAT DEC 20 2014

......SGF CWA......

CITY           SKY/WX    TMP DP  RH WIND       PRES   REMARKS
SPRINGFIELD    CLOUDY    41  36  82 SW6       30.20F
6HR MIN TEMP:  37; 6HR MAX TEMP:  41;

JOPLIN         PTSUNNY   42  34  73 SW8       30.22F
6HR MIN TEMP:  36; 6HR MAX TEMP:  42;

WEST PLAINS    CLOUDY    38  34  85 CALM      30.23F
6HR MIN TEMP:  34; 6HR MAX TEMP:  38;

ROLLA          CLOUDY    40  35  83 SE5       30.19F
6HR MIN TEMP:  35; 6HR MAX TEMP:  40;

OSAGE BEACH    CLOUDY    43  34  70 SW8       30.20F
BRANSON        CLOUDY    41  39  93 CALM      30.22F FOG

......SURROUNDING SGF CWA......

CITY           SKY/WX    TMP DP  RH WIND       PRES   REMARKS
CHANUTE        PTSUNNY   44  35  70 S13       30.20S
PARSONS        CLOUDY    43  35  73 SW9       30.22F
COFFEYVILLE    CLOUDY    43  34  70 SW9       30.22F
EMPORIA        SUNNY     43  37  79 SW17      30.14F
GROVE OK       PTSUNNY   43  36  75 CALM      30.24F
ROGERS AR      CLOUDY    42  36  79 SE5       30.21F
SILOAM SPRINGS CLOUDY    43  34  70 SW3       30.23F
HARRISON AR    CLOUDY    41  39  93 CALM      30.21F
NEAR YELLVILLE CLOUDY    41  36  81 CALM      30.23F

......KANSAS AND MISSOURI......

CITY           SKY/WX    TMP DP  RH WIND       PRES   REMARKS
KANSAS CTY INT CLOUDY    41  36  82 S9        30.14F
DOWNTOWN KC    MOSUNNY   44  36  73 S8        30.16F
COLUMBIA       CLOUDY    40  37  89 S6        30.20F
SEDALIA        CLOUDY    39  35  86 SW8       30.21F WCI  33
ST JOSEPH      CLOUDY    39  34  82 S10       30.15F WCI  32
ST LOUIS       CLOUDY    41  32  70 SE3       30.25F
SPIRIT OF STL  CLOUDY    41  33  73 CALM      30.24F
KIRKSVILLE     CLOUDY    36  36 100 SW6       30.19F FOG     WCI  31
WICHITA        MOSUNNY   47  38  71 S13       30.15F
TOPEKA         SUNNY     45  37  73 SW12      30.14F
OLATHE         SUNNY     42  36  79 S10       30.15F

......TENNESSEE......

CITY           SKY/WX    TMP DP  RH WIND       PRES   REMARKS
MEMPHIS        CLOUDY    47  31  53 NE3       30.26F
NASHVILLE      PTSUNNY   45  27  49 CALM      30.25F

......ARKANSAS.......

CITY           SKY/WX    TMP DP  RH WIND       PRES   REMARKS
FAYETTEVILLE   CLOUDY    42  37  82 S6        30.22F
FT SMITH       CLOUDY    45  39  79 CALM      30.25F HAZE
LITTLE ROCK    CLOUDY    45  35  68 CALM      30.27F

......OKLAHOMA.......

CITY           SKY/WX    TMP DP  RH WIND       PRES   REMARKS
TULSA          CLOUDY    43  34  70 S7        30.24F
PONCA CITY     CLOUDY    48  36  63 SW8       30.19F
MCALESTER      CLOUDY    44  41  89 SW5       30.24F
OKLAHOMA CITY  CLOUDY    44  37  76 S10       30.20F

......IOWA............

CITY           SKY/WX    TMP DP  RH WIND       PRES   REMARKS
DES MOINES     CLOUDY    34  31  88 S8        30.16F FOG     WCI  27
QUAD CITIES    CLOUDY    33  26  75 SE7       30.23F HAZE    WCI  27

......ILLINOIS........

CITY           SKY/WX    TMP DP  RH WIND       PRES   REMARKS
QUINCY         CLOUDY    36  31  82 S8        30.22F HAZE    WCI  30
CHICAGO        CLOUDY    31  23  72 S8        30.26F WCI  23



USA.gov is the U.S. government's official web portal to all federal, state and local government web resources and services.